DW0128 Rapla EE current weather conditions

sailwx.info

Wind from 333 at 5 knots gusting 8

Air temperature 22.2° C
Dewpoint 11.6° C

Last reported at 2019-Jul-18 06:48 UTC.
Time now 2019-Jul-18 07:22 UTC

Location: N 58°60' E 024°50'.
View on Google Maps.

See reports from other nearby stations

  
Tides and Currents Weather Stations Pressure Air Temp Water Temp Dewpoint Dewpoint Depression Visibility Wind Speed Wind Dir Waves Ship Positions
date/time (UTC)wind fromknots sea level pressurealtimeterstation pressurevisibilityair tempwater tempwave heightnotes
2019-Jul-18 07:08 337 6 gusting 12 22.2
2019-Jul-18 07:03 006 5 gusting 12 21.7
2019-Jul-18 06:48 333 5 gusting 8 22.2
2019-Jul-18 06:43 357 4 gusting 6 21.7
2019-Jul-18 06:38 016 4 gusting 6 21.7
2019-Jul-18 06:33 344 3 gusting 6 21.7
2019-Jul-18 06:18 337 4 gusting 6 21.1
2019-Jul-18 06:13 285 5 gusting 6 20.6
2019-Jul-18 06:08 022 6 gusting 6 20.6
2019-Jul-18 06:03 301 2 gusting 6 20.6
2019-Jul-18 05:48 022 4 gusting 6 20.0
2019-Jul-18 05:43 339 4 gusting 6 20.0
2019-Jul-18 05:38 331 3 gusting 6 20.0
2019-Jul-18 05:33 293 4 gusting 7 19.4
2019-Jul-18 05:18 001 3 gusting 6 18.9
2019-Jul-18 05:13 346 4 gusting 5 18.9
2019-Jul-18 05:08 068 2 gusting 5 18.9
2019-Jul-18 05:03 328 2 gusting 5 18.3
2019-Jul-18 04:48 338 1 gusting 5 17.8
2019-Jul-18 04:43 308 3 gusting 5 17.8
2019-Jul-18 04:38 338 4 gusting 5 17.2
2019-Jul-18 04:33 338 4 gusting 5 17.2
2019-Jul-18 04:18 292 2 gusting 1 16.7
2019-Jul-18 04:13 310 1 gusting 1 16.7
2019-Jul-18 04:08 338 1 gusting 4 16.1
2019-Jul-18 04:03 338 4 gusting 4 16.1
2019-Jul-18 03:48 038 2 gusting 2 15.0
2019-Jul-18 03:43 292 1 gusting 0 15.0
2019-Jul-18 03:38 292 1 gusting 0 15.0
2019-Jul-18 03:33 292 1 gusting 0 14.4
2019-Jul-18 03:18 292 1 gusting 0 13.9
2019-Jul-18 03:13 292 1 gusting 0 13.3
2019-Jul-18 03:08 292 1 gusting 0 13.3
2019-Jul-18 03:03 292 1 gusting 2 13.3
2019-Jul-18 02:48 022 1 gusting 1 12.2
2019-Jul-18 02:43 062 2 gusting 4 11.7
2019-Jul-18 02:38 329 1 gusting 2 11.7
2019-Jul-18 02:33 281 1 gusting 2 11.7
2019-Jul-18 02:18 326 1 gusting 2 11.1
2019-Jul-18 02:13 305 1 gusting 1 11.1
2019-Jul-18 02:08 304 1 gusting 1 11.1
2019-Jul-18 02:03 315 11.1
2019-Jul-18 01:48 338 1 gusting 2 11.1
2019-Jul-18 01:43 338 1 gusting 2 11.1
2019-Jul-18 01:38 338 1 gusting 2 11.1
2019-Jul-18 01:33 278 1 gusting 2 11.1
2019-Jul-18 01:18 292 1 gusting 1 11.1
2019-Jul-18 01:13 312 1 gusting 1 11.1
2019-Jul-18 01:08 338 1 gusting 1 11.1
2019-Jul-18 01:03 022 11.1
2019-Jul-18 00:48 294 1 gusting 1 11.1
2019-Jul-18 00:43 338 1 gusting 1 11.1
2019-Jul-18 00:38 338 1 gusting 1 11.1
2019-Jul-18 00:33 338 0 gusting 1 11.1
2019-Jul-18 00:18 292 0 gusting 1 11.7
2019-Jul-18 00:13 292 0 gusting 2 11.7
2019-Jul-18 00:08 292 1 gusting 2 11.7
2019-Jul-18 00:03 022 1 gusting 2 11.1
2019-Jul-17 23:48 338 1 gusting 1 11.1
2019-Jul-17 23:43 022 1 gusting 1 11.1
2019-Jul-17 23:38 022 1 gusting 1 11.7
2019-Jul-17 23:33 022 1 gusting 1 11.7
2019-Jul-17 23:18 292 1 gusting 1 11.7
2019-Jul-17 23:13 292 1 gusting 1 11.7
2019-Jul-17 23:08 292 1 gusting 1 11.7
2019-Jul-17 23:03 292 1 gusting 1 11.7
2019-Jul-17 22:48 059 1 gusting 2 11.7
2019-Jul-17 22:43 11.7
2019-Jul-17 22:38 11.7
2019-Jul-17 22:33 11.7
2019-Jul-17 22:18 11.7
2019-Jul-17 22:13 11.7
2019-Jul-17 22:08 11.7
2019-Jul-17 22:03 11.7
2019-Jul-17 21:48 12.2
2019-Jul-17 21:43 12.2
2019-Jul-17 21:38 12.2
2019-Jul-17 21:33 12.8
2019-Jul-17 21:18 12.8
2019-Jul-17 21:13 12.8
2019-Jul-17 21:08 12.8
2019-Jul-17 21:03 13.3
2019-Jul-17 20:48 13.3
2019-Jul-17 20:43 13.3
2019-Jul-17 20:38 13.3
2019-Jul-17 20:33 13.9
2019-Jul-17 20:18 13.9
2019-Jul-17 20:13 14.4
2019-Jul-17 20:08 14.4
2019-Jul-17 20:03 14.4
2019-Jul-17 19:48 15.0
2019-Jul-17 19:43 15.0
2019-Jul-17 19:38 15.0
2019-Jul-17 19:33 15.0
2019-Jul-17 19:18 15.6
2019-Jul-17 19:13 16.1
2019-Jul-17 19:08 022 2 gusting 1 16.7
2019-Jul-17 19:03 022 2 gusting 1 16.7
2019-Jul-17 18:48 022 2 gusting 1 17.8
2019-Jul-17 18:43 022 2 gusting 1 17.8
2019-Jul-17 18:38 022 2 gusting 1 17.8
2019-Jul-17 18:33 022 2 gusting 1 18.3
2019-Jul-17 18:18 022 2 gusting 1 18.9
2019-Jul-17 18:13 022 2 gusting 1 19.4
2019-Jul-17 18:08 022 2 gusting 1 19.4
2019-Jul-17 18:03 022 2 gusting 1 19.4
2019-Jul-17 17:48 022 2 gusting 1 20.0
2019-Jul-17 17:43 022 2 gusting 1 20.0
2019-Jul-17 17:38 022 2 gusting 1 20.6
2019-Jul-17 17:33 022 2 gusting 1 20.6
2019-Jul-17 17:18 022 2 gusting 1 21.1
2019-Jul-17 17:13 022 2 gusting 1 21.1
2019-Jul-17 17:08 022 2 gusting 1 21.1
2019-Jul-17 17:03 022 2 gusting 1 21.1
2019-Jul-17 16:48 022 2 gusting 1 21.7
2019-Jul-17 16:43 022 2 gusting 1 21.7
2019-Jul-17 16:38 022 2 gusting 1 22.2
2019-Jul-17 16:33 022 2 gusting 1 22.2
2019-Jul-17 16:18 022 2 gusting 1 22.8
2019-Jul-17 16:13 022 2 gusting 1 22.2
2019-Jul-17 16:08 022 2 gusting 1 22.8
2019-Jul-17 16:03 022 2 gusting 1 22.8
2019-Jul-17 15:48 022 2 gusting 1 22.8
2019-Jul-17 15:43 022 2 gusting 1 22.8
2019-Jul-17 15:38 022 2 gusting 1 23.3
2019-Jul-17 15:33 022 2 gusting 1 23.3
2019-Jul-17 15:18 022 2 gusting 1 23.3
2019-Jul-17 15:08 022 2 gusting 1 22.2
2019-Jul-17 15:03 022 2 gusting 2 22.8
2019-Jul-17 14:48 334 2 gusting 4 24.4
2019-Jul-17 14:43 228 23.3
2019-Jul-17 14:38 248 0 gusting 1 21.7
2019-Jul-17 14:33 202 21.1
2019-Jul-17 14:18 270 2 gusting 2 21.7
2019-Jul-17 14:13 270 2 gusting 2 21.7
2019-Jul-17 14:08 270 2 gusting 2 21.7
2019-Jul-17 14:03 270 2 gusting 2 22.2
2019-Jul-17 13:48 248 2 gusting 4 20.0
2019-Jul-17 13:43 292 2 gusting 4 20.0
2019-Jul-17 13:38 292 2 gusting 2 20.0
2019-Jul-17 13:33 139 5 gusting 6 20.0
2019-Jul-17 13:18 135 5 gusting 6 21.7
2019-Jul-17 13:13 135 5 gusting 6 22.2
2019-Jul-17 13:08 135 5 gusting 6 22.2
2019-Jul-17 13:03 135 5 gusting 6 23.3
2019-Jul-17 12:48 112 5 gusting 6 25.0
2019-Jul-17 12:43 088 2 gusting 6 25.6
2019-Jul-17 12:38 068 6 gusting 6 25.0
2019-Jul-17 12:33 083 4 gusting 6 24.4
2019-Jul-17 12:18 133 2 gusting 5 24.4
2019-Jul-17 12:13 158 2 gusting 6 23.3
2019-Jul-17 12:08 083 1 gusting 2 22.2
2019-Jul-17 12:03 131 3 gusting 6 22.8
2019-Jul-17 11:48 112 4 gusting 6 21.1
2019-Jul-17 11:43 112 4 gusting 6 21.7
2019-Jul-17 11:38 112 4 gusting 6 22.2
2019-Jul-17 11:33 112 4 gusting 8 24.4
2019-Jul-17 11:18 134 2 gusting 5 27.2
2019-Jul-17 11:13 058 4 gusting 7 26.1
2019-Jul-17 11:08 055 4 gusting 6 26.1
2019-Jul-17 11:03 028 4 gusting 7 25.6
2019-Jul-17 10:48 116 5 gusting 7 25.6
2019-Jul-17 10:43 074 4 gusting 6 26.1
2019-Jul-17 10:38 110 3 gusting 6 24.4
2019-Jul-17 10:33 214 4 gusting 6 23.9
2019-Jul-17 10:18 112 4 gusting 5 22.8
2019-Jul-17 10:13 112 4 gusting 2 21.1
2019-Jul-17 10:08 112 4 gusting 2 21.7
2019-Jul-17 10:03 112 4 gusting 6 22.2
2019-Jul-17 09:48 034 6 gusting 11 24.4
2019-Jul-17 09:43 124 3 gusting 5 23.9
2019-Jul-17 09:38 054 4 gusting 6 23.3
2019-Jul-17 09:33 038 4 gusting 7 22.8
2019-Jul-17 09:18 110 2 gusting 6 26.1
2019-Jul-17 09:13 067 4 gusting 6 25.0
2019-Jul-17 09:08 005 1 gusting 5 24.4
2019-Jul-17 09:03 131 4 gusting 6 25.0
2019-Jul-17 08:48 141 3 gusting 6 23.3
2019-Jul-17 08:43 022 6 gusting 7 22.2
2019-Jul-17 08:38 038 3 gusting 5 23.9
2019-Jul-17 08:33 065 4 gusting 7 23.9
2019-Jul-17 08:18 064 4 gusting 6 24.4
2019-Jul-17 08:13 135 2 gusting 5 23.9
2019-Jul-17 08:08 057 2 gusting 6 23.9
2019-Jul-17 08:03 120 5 gusting 7 23.3
2019-Jul-17 07:48 068 3 gusting 4 23.3
2019-Jul-17 07:43 060 5 gusting 6 22.8
2019-Jul-17 07:38 073 4 gusting 7 22.8
2019-Jul-17 07:33 359 4 gusting 7 22.8
2019-Jul-17 07:18 087 1 gusting 4 23.3
2019-Jul-17 07:13 100 2 gusting 6 23.3
2019-Jul-17 07:08 089 1 gusting 2 23.3
2019-Jul-17 07:03 036 1 gusting 6 22.8
2019-Jul-17 06:48 060 4 gusting 6 22.2
2019-Jul-17 06:43 011 2 gusting 4 22.2
2019-Jul-17 06:38 145 2 gusting 5 22.2
2019-Jul-17 06:33 112 3 gusting 5 22.2
2019-Jul-17 06:18 077 2 gusting 6 21.1
2019-Jul-17 06:13 018 1 gusting 5 21.7
2019-Jul-17 06:08 121 1 gusting 4 21.1
2019-Jul-17 06:03 115 1 gusting 5 21.1
2019-Jul-17 05:48 036 2 gusting 4 20.0
2019-Jul-17 05:43 053 2 gusting 4 20.0
2019-Jul-17 05:38 066 1 gusting 2 20.0
2019-Jul-17 05:33 075 1 gusting 4 20.0
2019-Jul-17 05:18 322 1 gusting 2 18.9
2019-Jul-17 05:13 060 1 gusting 2 18.3
2019-Jul-17 05:08 072 1 gusting 4 18.3
2019-Jul-17 05:03 068 2 gusting 4 17.8
2019-Jul-17 04:48 061 2 gusting 5 17.2
2019-Jul-17 04:43 068 1 gusting 4 17.2
2019-Jul-17 04:38 068 2 gusting 4 17.2
2019-Jul-17 04:33 112 0 gusting 4 16.7
2019-Jul-17 04:18 068 1 gusting 2 16.1
2019-Jul-17 04:13 074 1 gusting 2 15.6
2019-Jul-17 04:08 068 1 gusting 1 15.0
2019-Jul-17 04:03 068 1 gusting 2 15.0
2019-Jul-17 03:48 112 0 gusting 2 15.6
2019-Jul-17 03:43 090 1 gusting 2 15.0
2019-Jul-17 03:38 045 15.0
2019-Jul-17 03:33 045 1 gusting 1 14.4
2019-Jul-17 03:18 292 13.9
2019-Jul-17 03:13 135 13.3
2019-Jul-17 03:08 112 12.8
2019-Jul-17 03:03 090 12.8
2019-Jul-17 02:48 068 11.7
2019-Jul-17 02:43 126 11.1
2019-Jul-17 02:38 292 11.1
2019-Jul-17 02:33 022 11.1
2019-Jul-17 02:18 022 0 gusting 1 10.6
2019-Jul-17 02:13 022 10.6
2019-Jul-17 02:08 256 10.6
2019-Jul-17 02:03 225 10.6
2019-Jul-17 01:48 202 10.6
2019-Jul-17 01:43 241 10.6
2019-Jul-17 01:38 223 11.1
2019-Jul-17 01:33 045 11.1
2019-Jul-17 01:18 292 11.1
2019-Jul-17 01:13 315 11.1
2019-Jul-17 01:08 292 11.1
2019-Jul-17 01:03 013 11.1
2019-Jul-17 00:48 112 11.7
2019-Jul-17 00:43 112 11.7
2019-Jul-17 00:38 202 11.7
2019-Jul-17 00:33 202 1 gusting 4 12.2
2019-Jul-17 00:18 112 12.2
2019-Jul-17 00:13 338 2 gusting 2 12.2
2019-Jul-17 00:08 12.2
2019-Jul-17 00:03 339 1 gusting 4 12.2
2019-Jul-16 23:48 022 1 gusting 2 12.2
2019-Jul-16 23:43 343 2 gusting 4 12.2
2019-Jul-16 23:38 022 1 gusting 2 12.2
2019-Jul-16 23:33 022 1 gusting 2 12.2
2019-Jul-16 23:18 338 0 gusting 1 12.2
2019-Jul-16 23:13 248 12.2
2019-Jul-16 23:08 342 12.2
2019-Jul-16 23:03 323 1 gusting 2 12.2
2019-Jul-16 22:48 030 1 gusting 2 12.2
2019-Jul-16 22:43 292 0 gusting 1 12.2
2019-Jul-16 22:38 022 0 gusting 1 12.8
2019-Jul-16 22:33 338 1 gusting 2 12.8
2019-Jul-16 22:18 022 2 gusting 1 12.2
2019-Jul-16 22:13 062 1 gusting 2 12.2
2019-Jul-16 22:08 314 1 gusting 1 12.2
2019-Jul-16 22:03 112 0 gusting 1 12.2
2019-Jul-16 21:48 259 1 gusting 1 12.2
2019-Jul-16 21:43 022 0 gusting 0 12.2
2019-Jul-16 21:38 022 0 gusting 2 12.2
2019-Jul-16 21:33 022 1 gusting 2 12.2
2019-Jul-16 21:18 112 0 12.2
2019-Jul-16 21:13 112 0 gusting 1 12.2
2019-Jul-16 21:08 022 0 gusting 1 12.2
2019-Jul-16 21:03 022 0 gusting 1 12.2
2019-Jul-16 20:48 306 12.2
2019-Jul-16 20:43 248 12.2
2019-Jul-16 20:38 248 12.2
2019-Jul-16 20:33 248 12.2
2019-Jul-16 20:18 248 12.2
2019-Jul-16 20:13 248 12.8
2019-Jul-16 20:08 248 12.8
2019-Jul-16 20:03 248 12.8
2019-Jul-16 19:48 248 13.3
2019-Jul-16 19:43 315 13.3
2019-Jul-16 19:38 338 13.3
2019-Jul-16 19:33 022 13.3
2019-Jul-16 19:18 292 1 gusting 1 13.3
2019-Jul-16 19:13 292 1 gusting 1 13.9
2019-Jul-16 19:08 292 1 gusting 1 13.9
2019-Jul-16 19:03 292 1 gusting 1 13.9
2019-Jul-16 18:48 292 1 gusting 1 13.9
2019-Jul-16 18:43 292 1 gusting 1 13.9
2019-Jul-16 18:38 158 14.4
2019-Jul-16 18:33 131 1 gusting 1 14.4
2019-Jul-16 18:18 022 1 gusting 1 14.4
2019-Jul-16 18:13 022 1 gusting 1 15.0
2019-Jul-16 18:08 022 1 gusting 1 14.4
2019-Jul-16 18:03 022 1 gusting 1 14.4
2019-Jul-16 17:48 068 1 gusting 1 14.4
2019-Jul-16 17:43 068 1 gusting 1 14.4
2019-Jul-16 17:38 068 1 gusting 1 14.4
2019-Jul-16 17:33 068 1 gusting 1 14.4
2019-Jul-16 17:18 068 1 gusting 0 14.4
2019-Jul-16 17:13 068 1 gusting 0 15.0
2019-Jul-16 17:08 112 0 gusting 0 15.0
2019-Jul-16 17:03 112 0 gusting 0 15.0
2019-Jul-16 16:48 112 0 gusting 0 15.0
2019-Jul-16 16:43 112 0 gusting 0 15.0
2019-Jul-16 16:38 112 0 gusting 0 15.0
2019-Jul-16 16:33 112 0 gusting 0 15.0
2019-Jul-16 16:18 112 0 gusting 0 15.6
2019-Jul-16 16:13 112 0 gusting 0 15.6
2019-Jul-16 16:08 112 0 gusting 0 15.6
2019-Jul-16 16:03 112 0 gusting 2 15.6
2019-Jul-16 15:48 180 1 15.6
2019-Jul-16 15:43 180 1 gusting 2 15.6
2019-Jul-16 15:38 158 1 gusting 2 15.6
2019-Jul-16 15:33 112 1 gusting 2 15.6
2019-Jul-16 15:18 158 1 gusting 1 15.0
2019-Jul-16 15:13 158 1 gusting 1 15.0
2019-Jul-16 15:08 158 1 gusting 1 15.0
2019-Jul-16 15:03 202 1 gusting 1 14.4
2019-Jul-16 14:48 202 1 gusting 2 15.0
2019-Jul-16 14:43 202 2 gusting 2 16.1
2019-Jul-16 14:38 205 0 gusting 2 17.2
2019-Jul-16 14:33 188 1 gusting 4 17.8
2019-Jul-16 14:18 146 1 gusting 2 18.9
2019-Jul-16 14:13 166 1 gusting 2 18.3
2019-Jul-16 14:08 158 1 gusting 4 18.3
2019-Jul-16 14:03 158 1 gusting 4 17.8
2019-Jul-16 13:48 202 2 gusting 1 18.3
2019-Jul-16 13:43 199 2 gusting 2 18.9
2019-Jul-16 13:38 202 0 gusting 1 19.4
2019-Jul-16 13:33 248 1 gusting 2 19.4
2019-Jul-16 13:18 202 2 gusting 2 18.3
2019-Jul-16 13:13 202 18.9
2019-Jul-16 13:08 202 1 gusting 1 18.9
2019-Jul-16 13:03 193 1 gusting 2 18.3
2019-Jul-16 12:48 202 0 gusting 2 17.8
2019-Jul-16 12:43 158 1 gusting 2 17.8
2019-Jul-16 12:38 175 2 gusting 2 17.8
2019-Jul-16 12:33 248 2 gusting 6 17.8
2019-Jul-16 12:18 112 4 gusting 6 18.9
2019-Jul-16 12:13 158 2 gusting 4 18.9
2019-Jul-16 12:08 158 4 gusting 4 20.0
2019-Jul-16 12:03 137 4 gusting 6 20.6
2019-Jul-16 11:48 116 4 gusting 10 19.4
2019-Jul-16 11:43 203 1 gusting 5 19.4
2019-Jul-16 11:38 202 1 gusting 4 19.4
2019-Jul-16 11:33 202 1 gusting 6 19.4
2019-Jul-16 11:18 183 5 gusting 7 18.9
2019-Jul-16 11:13 168 1 gusting 6 18.9
2019-Jul-16 11:08 195 2 gusting 5 18.9
2019-Jul-16 11:03 080 4 gusting 6 18.3
2019-Jul-16 10:48 156 3 gusting 6 17.2
2019-Jul-16 10:43 202 4 gusting 6 17.2
2019-Jul-16 10:38 147 4 gusting 6 17.8
2019-Jul-16 10:33 135 5 gusting 10 17.8
2019-Jul-16 10:18 193 4 gusting 7 17.2
2019-Jul-16 10:13 174 5 gusting 6 17.2
2019-Jul-16 10:08 178 6 gusting 7 17.2
2019-Jul-16 10:03 180 5 gusting 12 17.8
2019-Jul-16 09:48 136 4 gusting 6 17.8
2019-Jul-16 09:43 138 4 gusting 11 17.2
2019-Jul-16 09:38 158 4 gusting 11 17.2
2019-Jul-16 09:33 119 5 gusting 13 17.2
2019-Jul-16 09:18 112 5 gusting 8 17.8
2019-Jul-16 09:13 198 5 gusting 7 17.8
2019-Jul-16 09:08 194 6 gusting 13 17.8
2019-Jul-16 09:03 163 5 gusting 12 18.3
2019-Jul-16 08:48 169 4 gusting 8 20.0
2019-Jul-16 08:43 150 6 gusting 10 19.4
2019-Jul-16 08:38 156 6 gusting 10 18.9
2019-Jul-16 08:33 180 5 gusting 10 18.9
2019-Jul-16 08:18 184 5 gusting 10 18.3
2019-Jul-16 08:13 184 5 gusting 8 18.3
2019-Jul-16 08:08 165 5 gusting 11 17.8
2019-Jul-16 08:03 168 5 gusting 11 17.8
2019-Jul-16 07:48 154 4 gusting 8 17.2
2019-Jul-16 07:43 134 6 gusting 7 17.2
2019-Jul-16 07:38 098 4 gusting 10 17.2
2019-Jul-16 07:33 181 5 gusting 10 17.2
2019-Jul-16 07:18 141 6 gusting 7 16.7
2019-Jul-16 07:13 158 4 gusting 6 16.7
2019-Jul-16 07:08 163 5 gusting 10 16.1
2019-Jul-16 07:03 135 3 gusting 8 16.1